Arbor Vitae, WI

12:53 AM CDT on April 24, 2018 (GMT -0500)
Lakeland-Lee Memorial

Weather History for KARV - September, 2014

Change the Weather History Date:

Thursday, September 4, 2014

  Actual Average Record
Temperature  
Mean Temperature 66 °F -  
Max Temperature 72 °F 70 °F 89 °F (1922)
Min Temperature 59 °F 49 °F 34 °F (1974)
Growing Degree Days 16 (Base 50)    
Moisture  
Dew Point 64 °F    
Average Humidity 91    
Maximum Humidity 95    
Minimum Humidity 80    
Precipitation  
Precipitation 1.57 in - - ()
Sea Level Pressure  
Sea Level Pressure 29.80 in    
Wind  
Wind Speed 8 mph (SSE)    
Max Wind Speed 22 mph    
Max Gust Speed 41 mph    
Visibility 9 miles    
Events Rain , Thunderstorm    
Averages and records for this station are not official NWS values.
T = Trace of Precipitation, MM = Missing Value Source: NWS Daily Summary

Daily Weather History Graph

Daily Weather History Graph

Search for Another Location

Airport or City:

Astronomy

Sep. 04, 2014 Rise Set
Actual Time 6:23 AM CDT 7:31 PM CDT
Civil Twilight 5:52 AM CDT 8:01 PM CDT
Nautical Twilight 5:16 AM CDT 8:38 PM CDT
Astronomical Twilight 4:37 AM CDT 9:17 PM CDT
Moon 4:18 PM CDT (9/4) 1:04 AM CDT (9/4)
Length of Visible Light 14h 09m
Length of Day
13h 07m
Waxing Gibbous, 74% of the Moon is Illuminated
Sep 4
Waxing Gibbous
Sep 8
Full
Sep 15
Last Quarter
Sep 24
New
Oct 1
First Quarter

Hourly Weather History & Observations

Time (CDT) Temp. Dew Point Humidity Pressure Visibility Wind Dir Wind Speed Gust Speed Precip Events Conditions
12:15 AM 61.5 °F 58.8 °F 91% 29.84 in 10.0 mi ESE 9.2 mph 17.3 mph N/A   Clear
12:35 AM 59.9 °F 57.4 °F 91% 29.84 in 10.0 mi East 13.8 mph 18.4 mph N/A   Clear
12:55 AM 61.9 °F 59.4 °F 91% 29.85 in 10.0 mi SE 8.1 mph 16.1 mph N/A   Mostly Cloudy
1:15 AM 61.9 °F 59.5 °F 92% 29.84 in 10.0 mi SE 8.1 mph - N/A   Overcast
1:35 AM 61.9 °F 59.4 °F 91% 29.84 in 10.0 mi SSE 6.9 mph - N/A   Mostly Cloudy
1:55 AM 61.9 °F 59.9 °F 93% 29.83 in 10.0 mi South 4.6 mph - N/A   Scattered Clouds
2:15 AM 61.9 °F 60.1 °F 94% 29.82 in 10.0 mi SSE 4.6 mph - N/A   Clear
2:35 AM 61.9 °F 60.1 °F 94% 29.83 in 10.0 mi South 3.5 mph - N/A   Clear
2:55 AM 61.9 °F 60.1 °F 94% 29.84 in 10.0 mi South 3.5 mph - N/A   Clear
3:15 AM 61.9 °F 60.3 °F 94% 29.84 in 10.0 mi South 3.5 mph - N/A   Clear
3:35 AM 61.9 °F 60.3 °F 94% 29.85 in 10.0 mi Calm Calm - N/A   Clear
4:00 AM 61.9 °F 60.3 °F 94% 29.84 in 10.0 mi SSE 3.5 mph - N/A   Mostly Cloudy
4:15 AM 61.9 °F 60.4 °F 95% 29.83 in 10.0 mi Calm Calm - N/A   Overcast
4:35 AM 62.6 °F 61.0 °F 94% 29.81 in 10.0 mi Calm Calm - N/A   Overcast
4:55 AM 63.0 °F 61.5 °F 95% 29.81 in 10.0 mi ESE 3.5 mph - N/A   Overcast
5:15 AM 63.1 °F 61.7 °F 95% 29.79 in - SE 5.8 mph - N/A   Unknown
5:35 AM 63.1 °F 61.7 °F 95% 29.79 in 10.0 mi SE 4.6 mph - N/A   Overcast
5:55 AM 63.1 °F 61.7 °F 95% 29.79 in 7.0 mi SE 4.6 mph - N/A   Overcast
6:15 AM 63.7 °F 62.2 °F 95% 29.80 in 7.0 mi SE 3.5 mph - N/A   Overcast
6:35 AM 64.4 °F 62.8 °F 94% 29.81 in 7.0 mi SE 3.5 mph - N/A   Overcast
6:55 AM 64.4 °F 62.8 °F 94% 29.81 in 10.0 mi SE 4.6 mph - N/A   Overcast
7:15 AM 64.8 °F 63.1 °F 94% 29.81 in 10.0 mi SE 5.8 mph - N/A   Overcast
7:35 AM 65.3 °F 63.5 °F 94% 29.83 in 10.0 mi SSE 4.6 mph - N/A   Overcast
7:55 AM 65.3 °F 63.5 °F 94% 29.82 in 5.0 mi SSE 6.9 mph - N/A   Overcast
8:15 AM 65.7 °F 63.9 °F 94% 29.82 in 4.0 mi SSE 6.9 mph - N/A   Overcast
8:35 AM 66.7 °F 65.1 °F 95% 29.82 in 4.0 mi SE 6.9 mph - N/A   Overcast
8:55 AM 67.1 °F 65.3 °F 94% 29.81 in 4.0 mi ESE 4.6 mph - N/A   Overcast
9:15 AM 67.1 °F 65.3 °F 94% 29.79 in 3.0 mi NE 11.5 mph - N/A   Overcast
9:35 AM 67.1 °F 65.3 °F 94% 29.82 in 4.0 mi North 19.6 mph 23.0 mph 0.03 in Rain , Thunderstorm Heavy Thunderstorms and Rain
9:55 AM 61.9 °F 58.1 °F 87% 29.82 in 0.5 mi East 13.8 mph 41.4 mph 1.30 in Rain , Thunderstorm Heavy Thunderstorms and Rain
10:15 AM 63.1 °F 60.6 °F 91% 29.79 in 10.0 mi NNE 13.8 mph 20.7 mph 0.17 in Rain , Thunderstorm Light Thunderstorms and Rain
10:35 AM 65.8 °F 63.9 °F 93% 29.94 in 4.0 mi North 20.7 mph 32.2 mph 0.25 in Rain , Thunderstorm Heavy Thunderstorms and Rain
10:55 AM 65.1 °F 62.6 °F 92% 29.89 in 10.0 mi NE 13.8 mph 21.9 mph 0.27 in Rain , Thunderstorm Light Thunderstorms and Rain
11:15 AM 65.3 °F 62.8 °F 92% 29.74 in 10.0 mi ENE 13.8 mph 23.0 mph N/A Rain Light Rain
11:35 AM 65.5 °F 62.8 °F 91% 29.70 in 10.0 mi East 9.2 mph 21.9 mph N/A   Scattered Clouds
11:55 AM 67.1 °F 63.0 °F 87% 29.72 in 10.0 mi ESE 10.4 mph 21.9 mph N/A   Clear
12:15 PM 69.3 °F 64.6 °F 85% 29.77 in 10.0 mi South 17.3 mph 20.7 mph N/A   Clear
12:35 PM 69.4 °F 65.3 °F 87% 29.79 in 10.0 mi South 18.4 mph 27.6 mph N/A   Clear
12:55 PM 67.5 °F 64.2 °F 89% 29.82 in 10.0 mi SSW 20.7 mph 25.3 mph N/A Rain Light Rain
1:15 PM 67.1 °F 63.5 °F 88% 29.79 in 10.0 mi South 12.7 mph 19.6 mph N/A   Scattered Clouds
1:35 PM 69.3 °F 64.8 °F 86% 29.76 in 10.0 mi SSE 17.3 mph 28.8 mph N/A   Scattered Clouds
2:00 PM 69.6 °F 64.6 °F 84% 29.80 in 10.0 mi South 17.3 mph 23.0 mph N/A   Light Drizzle
2:15 PM 72.0 °F 66.4 °F 83% 29.76 in 10.0 mi South 17.3 mph 21.9 mph N/A Rain Light Rain
2:35 PM 72.0 °F 65.5 °F 80% 29.74 in 10.0 mi South 17.3 mph 27.6 mph N/A   Clear
2:55 PM 72.0 °F 66.4 °F 83% 29.77 in 10.0 mi SSW 21.9 mph 31.1 mph N/A   Scattered Clouds
3:15 PM - - N/A% 29.79 in 10.0 mi South 18.4 mph 23.0 mph N/A   Unknown
3:35 PM 72.0 °F 67.6 °F 86% 29.76 in 10.0 mi South 16.1 mph 24.2 mph N/A   Overcast
3:55 PM 72.0 °F 68.0 °F 87% 29.76 in 10.0 mi South 13.8 mph 24.2 mph N/A   Overcast
4:15 PM 72.0 °F 68.5 °F 89% 29.76 in 10.0 mi South 16.1 mph 27.6 mph N/A   Overcast
4:35 PM 72.0 °F 68.9 °F 90% 29.80 in 10.0 mi WSW 11.5 mph 23.0 mph N/A   Light Drizzle
4:55 PM 72.0 °F 69.1 °F 91% 29.77 in 10.0 mi SSW 12.7 mph 19.6 mph N/A   Overcast
5:15 PM 72.0 °F 69.1 °F 91% 29.76 in 10.0 mi SSW 11.5 mph 19.6 mph N/A Rain Light Rain
5:35 PM 72.0 °F 69.1 °F 91% 29.78 in 10.0 mi SSW 9.2 mph - N/A   Overcast
5:55 PM 72.0 °F 69.1 °F 91% 29.76 in 10.0 mi SSE 9.2 mph - N/A   Overcast
6:15 PM 72.0 °F 69.1 °F 91% 29.76 in 10.0 mi South 3.5 mph - N/A   Overcast
6:35 PM 72.0 °F 68.9 °F 90% 29.77 in 10.0 mi West 3.5 mph - N/A   Overcast
6:55 PM 72.0 °F 68.9 °F 90% 29.76 in 10.0 mi Calm Calm - N/A   Overcast
7:15 PM 72.0 °F 69.3 °F 91% 29.79 in 10.0 mi WSW 3.5 mph - N/A   Overcast
7:35 PM 72.0 °F 69.3 °F 91% 29.80 in 10.0 mi SSW 4.6 mph - N/A   Mostly Cloudy
7:55 PM 72.0 °F 69.8 °F 93% 29.82 in 10.0 mi South 4.6 mph - N/A   Mostly Cloudy
8:15 PM 72.0 °F 69.8 °F 93% 29.83 in 10.0 mi South 4.6 mph - N/A   Mostly Cloudy
8:35 PM 72.0 °F 69.8 °F 93% 29.83 in 10.0 mi South 5.8 mph - N/A   Mostly Cloudy
9:15 PM 72.0 °F 69.8 °F 93% 29.83 in 10.0 mi South 6.9 mph - N/A   Overcast
9:35 PM 72.0 °F 69.4 °F 92% 29.84 in 10.0 mi SSW 3.5 mph - N/A   Mostly Cloudy
10:15 PM 71.8 °F 68.2 °F 88% 29.82 in 10.0 mi SSW 10.4 mph 16.1 mph N/A   Mostly Cloudy
10:35 PM 69.4 °F 65.7 °F 88% 29.81 in 10.0 mi South 10.4 mph 16.1 mph N/A Rain Light Rain
10:55 PM 69.4 °F 66.0 °F 89% 29.81 in 10.0 mi SSW 6.9 mph - N/A   Unknown
11:15 PM 68.0 °F 64.4 °F 88% 29.82 in 10.0 mi South 8.1 mph - N/A   Overcast
11:35 PM 67.6 °F 64.2 °F 89% 29.82 in 10.0 mi South 6.9 mph - N/A   Overcast
11:55 PM 67.1 °F 63.9 °F 89% 29.81 in 10.0 mi South 8.1 mph - N/A   Overcast